[[{"header":{"parameterUnit":"m.s-1","parameterCategory":2,"la1":30.2991,"la2":30.254,"lo1":-89.0895,"lo2":-89.0444,"dy":0.0017,"dx":0.0017,"nx":28,"ny":28,"refTime":"2024-09-29T09:00:00:Z","depth":"0","parameterNumber":2,"parameterNumberName":"U-component_of_CURRENTS"},"data":[0,0,0,0,0,0,0,0,0,0,0,0,0,0,0,0,0,0,0,0,0,0,0,0,0,0,0,0,0,0,0,0,0,0,0,0,0,0,0,0,0,0,0,0,0,0,0,0,0,0,0,0,0,0,0,0,0,0,0.1577,0.1578,0,0.1683,0.1685,0.1686,0.1736,0.1736,0.1735,0.1735,0.1859,0.1862,0.1866,0,0,0,0,0,0,0,0,0,0,0,0,0,0.1547,0.1547,0.1577,0.1578,0.1579,0.1683,0.1685,0.1687,0.1736,0.1736,0.1735,0.1734,0.1857,0.1862,0.1866,0,0,0,0,0,0,0,0,0,0,0,0,0,0.1602,0.1547,0.1577,0.1612,0.1616,0.1682,0.1685,0.1687,0.1737,0.1736,0.1735,0.1734,0.1856,0.1861,0.1867,0.1919,0,0,0.1884,0.1887,0,0,0,0,0,0,0,0,0.1598,0.1603,0.1606,0.161,0.1614,0.1691,0.1719,0.1764,0.1737,0.1696,0.1735,0.1734,0.1801,0.1812,0.1841,0.1924,0.193,0.1885,0.1888,0.1891,0.1892,0,0,0,0,0,0,0,0.1594,0.16,0.1624,0.1607,0.1612,0.1666,0.1673,0.1729,0.1757,0.17,0.1702,0.1706,0.1804,0.1835,0.1844,0.1932,0.1885,0.189,0.1893,0.1896,0.2057,0.2058,0,0,0,0,0,0,0.1565,0.1595,0.1621,0.1627,0.1598,0.1667,0.1674,0.1672,0.1756,0.1766,0.1707,0.1708,0.1826,0.1837,0.1848,0.1939,0.1891,0.1896,0.1899,0.2056,0.2057,0.2058,0,0,0,0,0,0,0.1563,0.1566,0.1617,0.161,0.162,0.1667,0.1664,0.1674,0.1703,0.176,0.1771,0.1724,0.1825,0.184,0.1904,0.1943,0.1899,0.1904,0.2055,0.2057,0.2058,0.2105,0,0,0,0,0,0,0.1562,0.1565,0.1563,0.1607,0.1618,0.1677,0.1665,0.1676,0.1704,0.1707,0.1779,0.179,0.1826,0.1895,0.1909,0.195,0.1908,0.2054,0.2056,0.2057,0.2103,0.2108,0.2113,0,0,0,0,0,0.1561,0.1584,0.1562,0.1566,0.1611,0.1679,0.1692,0.1726,0.1705,0.1744,0.1773,0.1788,0.1915,0.1901,0.1917,0.1961,0.2053,0.2055,0.2057,0.21,0.2107,0.2113,0,0,0,0,0,0,0.1599,0.1592,0.1569,0.1593,0.163,0.1685,0.1724,0.1724,0.1779,0.1777,0.181,0.1826,0.1896,0.1914,0.1897,0.2007,0.1983,0.1988,0.201,0.2016,0.2021,0.2024,0.1913,0,0,0,0,0,0.1591,0.1591,0.1607,0.163,0.1644,0.1673,0.1701,0.172,0.1765,0.1788,0.1827,0.1867,0.1919,0.1953,0.2004,0.2071,0.2097,0.2103,0.2108,0.2113,0.2124,0.2206,0.2221,0.2065,0.2065,0.2065,0,0,0.1615,0.1608,0.1611,0.1634,0.1662,0.1719,0.1692,0.1746,0.1793,0.1794,0.1872,0.1893,0.1938,0.2016,0.2048,0.2037,0.2166,0.2115,0.2119,0.2128,0.221,0.2226,0.224,0.2066,0.2066,0.2066,0,0,0.1683,0.1651,0.1681,0.171,0.1739,0.176,0.1768,0.1816,0.1837,0.1903,0.1908,0.1944,0.2031,0.207,0.2099,0.2158,0.2189,0.217,0.221,0.229,0.2304,0.2317,0.2354,0.237,0.2175,0.2175,0.2175,0,0.1713,0.1737,0.1712,0.1761,0.1788,0.1776,0.1838,0.1872,0.1933,0.1943,0.1937,0.2028,0.2062,0.2141,0.2163,0.2174,0.2212,0.2186,0.2299,0.2313,0.2325,0.236,0.2377,0.2177,0.2177,0.2177,0.2176,0,0.1808,0.183,0.1862,0.1893,0.1926,0.1982,0.2002,0.2029,0.2026,0.2044,0.21,0.2136,0.2179,0.2199,0.2209,0.2303,0.2297,0.2297,0.2288,0.2344,0.2376,0.2393,0.2181,0.218,0.2179,0.2179,0,0,0.1874,0.1914,0.1925,0.1944,0.1991,0.2027,0.2088,0.2129,0.2138,0.2188,0.2217,0.2294,0.2268,0.2297,0.2301,0.2371,0.248,0.2377,0.238,0.2419,0.2644,0.2479,0.2481,0.2514,0.2518,0.2521,0.2625,0,0.1957,0.2041,0.2045,0.2134,0.2178,0.2171,0.2216,0.2242,0.2246,0.2271,0.2289,0.2326,0.232,0.2325,0.2399,0.2457,0.253,0.2451,0.2577,0.258,0.2434,0.2497,0.2315,0.2379,0.2642,0.2644,0.2646,0,0.2048,0.2083,0.2169,0.2205,0.2221,0.2267,0.2281,0.2323,0.2341,0.2339,0.2364,0.2365,0.2446,0.2431,0.2585,0.2539,0.2602,0.2649,0.2654,0.2498,0.2448,0.2369,0.24,0.2292,0.2672,0.267,0.2668,0,0.208,0.2167,0.2217,0.2242,0.229,0.2307,0.2326,0.2337,0.2343,0.2371,0.237,0.2449,0.2475,0.2592,0.2642,0.2646,0.2798,0.2812,0.2725,0.2713,0.2577,0.2546,0.2524,0.2947,0.2946,0.2946,0.2946,0,0.215,0.2199,0.2228,0.226,0.23,0.2322,0.2343,0.2356,0.2365,0.2372,0.2395,0.241,0.2525,0.2592,0.2674,0.2718,0.2824,0.2743,0.274,0.2581,0.2551,0.2463,0.2425,0.295,0.2949,0.2948,0.2948,0,0.2179,0.2208,0.2263,0.2305,0.2314,0.2335,0.2348,0.2357,0.2358,0.237,0.2382,0.2417,0.2481,0.2552,0.271,0.272,0.2692,0.2793,0.256,0.2526,0.2318,0.2289,0.2209,0.2172,0.274,0.2737,0.2734,0,0.2195,0.2228,0.2273,0.2297,0.2316,0.2339,0.2351,0.2355,0.2356,0.2365,0.2377,0.241,0.2402,0.2503,0.2516,0.2584,0.2561,0.2472,0.2441,0.2279,0.2249,0.2184,0.2158,0.2293,0.2287,0.2282,0.2278,0,0.2228,0.2238,0.2278,0.2313,0.2336,0.2346,0.236,0.2348,0.2346,0.2335,0.2311,0.2298,0.2299,0.2227,0.2251,0.2295,0.2277,0.2367,0.2296,0.1964,0.1803,0.1772,0.2229,0.2233,0.2237,0.224,0.2243,0.2245,0.2238,0.2265,0.2305,0.233,0.235,0.2335,0.2295,0.2294,0.2257,0.2166,0.2226,0.2103,0.2001,0.1967,0.1991,0.1832,0.195,0.1803,0.1807,0.1776,0.1645,0.1956,0.1882,0.1884,0.1886,0.1888,0.189,0,0.225,0.2286,0.232,0.233,0.2312,0.2323,0.2284,0.2195,0.21,0.2028,0.1956,0.172,0.1596,0.152,0.1356,0.1288,0.1301,0.1268,0.1173,0.1206,0.1565,0.1444,0.1151,0.1151,0.1151,0.1151,0.1151,0.1151,0.2265,0.2301,0.2308,0.2275,0.2262,0.2156,0.2094,0.1968,0.1864,0.1605,0.1401,0.1322,0.1161,0.0956,0.0814,0.0825,0.0815,0.0712,0.083,0.1081,0.1133,0.1182,0.106,0.0691,0.0691,0.0402,0.04,0.0397]},{"header":{"parameterUnit":"m.s-1","parameterCategory":2,"la1":30.2991,"la2":30.254,"lo1":-89.0895,"lo2":-89.0444,"dy":0.0017,"dx":0.0017,"nx":28,"ny":28,"refTime":"2024-09-29T09:00:00:Z","depth":"0","parameterNumber":3,"parameterNumberName":"V-component_of_CURRENTS"},"data":[0,0,0,0,0,0,0,0,0,0,0,0,0,0,0,0,0,0,0,0,0,0,0,0,0,0,0,0,0,0,0,0,0,0,0,0,0,0,0,0,0,0,0,0,0,0,0,0,0,0,0,0,0,0,0,0,0,0,0.0286,0.0286,0,0.0252,0.0252,0.0251,0.02,0.02,0.0199,0.0198,0.0099,0.0097,0.0095,0,0,0,0,0,0,0,0,0,0,0,0,0,0.0287,0.0287,0.0286,0.0286,0.0286,0.0252,0.0252,0.0251,0.02,0.02,0.0199,0.0198,0.0099,0.0097,0.0094,0,0,0,0,0,0,0,0,0,0,0,0,0,0.0271,0.0287,0.0286,0.0259,0.0256,0.0253,0.0252,0.0251,0.0201,0.02,0.0199,0.0198,0.01,0.0097,0.0094,0.0095,0,0,0.0085,0.0083,0,0,0,0,0,0,0,0,0.0272,0.0271,0.0263,0.0261,0.0258,0.0232,0.0215,0.0196,0.0201,0.0219,0.0198,0.0197,0.0139,0.0133,0.0126,0.009,0.0086,0.0084,0.0083,0.0081,0.008,0,0,0,0,0,0,0,0.0273,0.0272,0.027,0.0263,0.026,0.0241,0.0237,0.0211,0.0182,0.0217,0.0214,0.0215,0.0137,0.0129,0.0123,0.0085,0.0084,0.0082,0.008,0.0079,0.009,0.0092,0,0,0,0,0,0,0.0285,0.0273,0.0271,0.027,0.0265,0.0242,0.0238,0.0239,0.0184,0.0175,0.0216,0.0213,0.0135,0.0127,0.012,0.0133,0.0081,0.0078,0.0077,0.0088,0.009,0.0092,0,0,0,0,0,0,0.0285,0.0285,0.0273,0.0272,0.027,0.0243,0.0245,0.0239,0.023,0.0184,0.0173,0.0212,0.0134,0.0124,0.0105,0.0127,0.0077,0.0074,0.0085,0.0088,0.0091,0.0149,0,0,0,0,0,0,0.0285,0.0285,0.0288,0.0273,0.027,0.0272,0.0246,0.0239,0.0233,0.0228,0.0178,0.0167,0.0132,0.011,0.0102,0.0122,0.0072,0.0082,0.0087,0.009,0.0144,0.0153,0.0161,0,0,0,0,0,0.0285,0.0294,0.0289,0.0289,0.0276,0.0273,0.027,0.0246,0.0234,0.0233,0.0206,0.0169,0.0131,0.0109,0.0099,0.0119,0.008,0.0085,0.009,0.014,0.0152,0.0161,0,0,0,0,0,0,0.0292,0.0289,0.0283,0.029,0.0284,0.0265,0.0265,0.0253,0.0232,0.0225,0.0181,0.0169,0.0167,0.0143,0.012,0.0141,0.0106,0.0109,0.0148,0.0158,0.0166,0.0184,0.0069,0,0,0,0,0,0.0299,0.0304,0.0298,0.0302,0.0304,0.0287,0.0283,0.0269,0.0251,0.0241,0.0208,0.0188,0.0182,0.0167,0.0152,0.0151,0.0163,0.0166,0.0175,0.0182,0.0195,0.0272,0.0288,0.0108,0.0108,0.0108,0,0,0.0301,0.0302,0.0303,0.0304,0.0298,0.0297,0.0281,0.0279,0.0277,0.0233,0.0218,0.021,0.019,0.0194,0.0192,0.0172,0.0234,0.0188,0.0194,0.0203,0.0278,0.0296,0.0312,0.0111,0.0111,0.011,0,0,0.0308,0.0313,0.0318,0.0317,0.0315,0.0308,0.0311,0.0298,0.0292,0.0283,0.0267,0.0282,0.0242,0.0253,0.0249,0.0302,0.028,0.0294,0.0343,0.0417,0.0433,0.0446,0.0456,0.047,0.0295,0.0296,0.0296,0,0.0309,0.0315,0.0319,0.0322,0.0321,0.0316,0.0317,0.0315,0.0296,0.0308,0.0283,0.0303,0.0279,0.0321,0.0337,0.0321,0.0338,0.0297,0.0429,0.0443,0.0456,0.0463,0.0478,0.0299,0.0299,0.0298,0.0298,0,0.0319,0.032,0.0325,0.0327,0.033,0.0332,0.0334,0.0339,0.0334,0.0339,0.0379,0.0373,0.039,0.0394,0.037,0.0458,0.043,0.0432,0.0399,0.0478,0.0479,0.0494,0.0304,0.0303,0.0302,0.0301,0,0,0.0317,0.0329,0.0329,0.033,0.0332,0.0336,0.035,0.0371,0.0398,0.0403,0.0453,0.0466,0.0486,0.0489,0.0488,0.0548,0.0637,0.0527,0.0529,0.053,0.0763,0.0713,0.0723,0.0666,0.067,0.0673,0.0715,0,0.0317,0.0327,0.0334,0.0337,0.0339,0.035,0.0366,0.0389,0.0411,0.0459,0.0504,0.0542,0.0516,0.0538,0.06,0.0642,0.0684,0.0623,0.0693,0.0694,0.0637,0.0743,0.0714,0.0749,0.073,0.0732,0.0734,0,0.0313,0.0321,0.0328,0.0346,0.0352,0.0358,0.0401,0.0416,0.049,0.0514,0.0582,0.0613,0.0703,0.0673,0.0789,0.0752,0.0759,0.0782,0.0785,0.0734,0.0674,0.0676,0.0776,0.074,0.0756,0.0754,0.0752,0,0.0297,0.0313,0.0321,0.0323,0.0346,0.0363,0.0382,0.0437,0.0474,0.0564,0.0615,0.0712,0.0776,0.0837,0.0864,0.0843,0.0982,0.0958,0.091,0.0903,0.0891,0.0878,0.0964,0.1039,0.1039,0.1039,0.1039,0,0.0281,0.0282,0.0317,0.0315,0.0344,0.0361,0.0409,0.0441,0.0521,0.0594,0.0651,0.0738,0.083,0.0907,0.0913,0.0961,0.1021,0.0944,0.0938,0.0905,0.0893,0.0867,0.0847,0.104,0.104,0.104,0.1039,0,0.0241,0.0264,0.0274,0.0312,0.0329,0.0347,0.0415,0.0464,0.0526,0.0631,0.0668,0.0792,0.0895,0.0941,0.1043,0.1023,0.1053,0.1047,0.0965,0.095,0.0867,0.0851,0.0966,0.0967,0.1027,0.1026,0.1026,0,0.0217,0.0219,0.0266,0.0296,0.0311,0.0353,0.0396,0.0457,0.0519,0.0666,0.073,0.0852,0.0951,0.1055,0.1054,0.1062,0.104,0.1008,0.0973,0.0887,0.0866,0.0879,0.0872,0.0962,0.0961,0.0961,0.096,0,0.0177,0.0199,0.0222,0.0282,0.0329,0.0382,0.0449,0.0499,0.0596,0.0691,0.0835,0.0926,0.1014,0.1053,0.1038,0.1025,0.0994,0.099,0.0963,0.0885,0.0851,0.0838,0.0856,0.0953,0.0954,0.0954,0.0955,0.0955,0.016,0.0178,0.0231,0.0285,0.0343,0.0419,0.0477,0.0567,0.0672,0.0825,0.0892,0.1017,0.1026,0.1026,0.1,0.0902,0.0946,0.0866,0.0867,0.0899,0.0877,0.0843,0.0895,0.0895,0.0895,0.0896,0.0896,0,0.0164,0.0198,0.0242,0.0321,0.0384,0.0416,0.0527,0.0599,0.0735,0.0853,0.0971,0.1005,0.1001,0.0956,0.0848,0.0793,0.0799,0.0764,0.0788,0.0798,0.0822,0.0794,0.0751,0.0751,0.0751,0.0751,0.0751,0.0751,0.018,0.0223,0.0248,0.0347,0.0405,0.0506,0.0576,0.068,0.0775,0.0896,0.0945,0.0982,0.0934,0.0824,0.0727,0.0705,0.0708,0.0698,0.0717,0.0711,0.072,0.073,0.0699,0.0638,0.0638,0.0699,0.0699,0.0699]}],[{"header":{"parameterUnit":"m.s-1","parameterCategory":2,"la1":30.2991,"la2":30.254,"lo1":-89.0895,"lo2":-89.0444,"dy":0.0017,"dx":0.0017,"nx":28,"ny":28,"refTime":"2024-09-29T09:00:00:Z","depth":"2","parameterNumber":2,"parameterNumberName":"U-component_of_CURRENTS"},"data":[0,0,0,0,0,0,0,0,0,0,0,0,0,0,0,0,0,0,0,0,0,0,0,0,0,0,0,0,0,0,0,0,0,0,0,0,0,0,0,0,0,0,0,0,0,0,0,0,0,0,0,0,0,0,0,0,0,0,0.1118,0.112,0,0.1195,0.1195,0.1195,0.1145,0.1143,0.1142,0.1141,0.1219,0.1222,0.1225,0,0,0,0,0,0,0,0,0,0,0,0,0,0.1015,0.1016,0.1118,0.112,0.1122,0.1195,0.1195,0.1195,0.1145,0.1143,0.1142,0.114,0.1217,0.1221,0.1225,0,0,0,0,0,0,0,0,0,0,0,0,0,0.1062,0.1016,0.1118,0.1114,0.1116,0.1195,0.1195,0.1195,0.1145,0.1143,0.1141,0.114,0.1216,0.1221,0.1226,0.1294,0,0,0.1241,0.1243,0,0,0,0,0,0,0,0,0.1059,0.1064,0.1113,0.1115,0.1117,0.1168,0.1187,0.1232,0.1146,0.1122,0.1141,0.1139,0.1211,0.1216,0.1218,0.1298,0.1301,0.1241,0.1244,0.1246,0.1248,0,0,0,0,0,0,0,0.1055,0.1061,0.1137,0.1116,0.1118,0.1139,0.1142,0.1195,0.1167,0.1124,0.1123,0.115,0.121,0.1214,0.122,0.1302,0.1241,0.1245,0.1248,0.125,0.1461,0.1463,0,0,0,0,0,0,0.1067,0.1058,0.1135,0.1141,0.1095,0.1143,0.1145,0.1144,0.1167,0.1172,0.1152,0.1148,0.1206,0.1214,0.1223,0.1286,0.1246,0.1251,0.1254,0.1458,0.1461,0.1464,0,0,0,0,0,0,0.1063,0.1071,0.1132,0.1111,0.1122,0.1147,0.1147,0.1147,0.1157,0.119,0.1192,0.1164,0.1205,0.1216,0.1274,0.129,0.1253,0.1257,0.1455,0.1459,0.1463,0.1427,0,0,0,0,0,0,0.1059,0.1069,0.1074,0.1111,0.1124,0.1153,0.115,0.115,0.1182,0.1177,0.1202,0.1206,0.1204,0.1267,0.1279,0.1296,0.1261,0.1451,0.1457,0.1461,0.1424,0.1429,0.1433,0,0,0,0,0,0.1055,0.1076,0.1073,0.1084,0.1128,0.1154,0.116,0.1166,0.1185,0.1171,0.1212,0.1205,0.1307,0.1273,0.1286,0.1305,0.1449,0.1455,0.1461,0.1423,0.1428,0.1433,0,0,0,0,0,0,0.1046,0.1075,0.1072,0.1103,0.1115,0.1149,0.1162,0.1183,0.1207,0.121,0.1239,0.1246,0.1302,0.133,0.1292,0.1388,0.1379,0.1388,0.1345,0.1351,0.1355,0.1371,0.1265,0,0,0,0,0,0.1048,0.1059,0.1085,0.1109,0.1113,0.1143,0.1164,0.1166,0.1201,0.1207,0.1247,0.1297,0.1341,0.1363,0.1404,0.1464,0.1478,0.1491,0.1495,0.1497,0.1525,0.16,0.1612,0.1484,0.1484,0.1484,0,0,0.1057,0.1077,0.1085,0.1107,0.1118,0.1127,0.1145,0.1169,0.1186,0.122,0.1269,0.1314,0.1364,0.1412,0.1441,0.1432,0.1524,0.1505,0.1506,0.1534,0.1607,0.1619,0.163,0.1488,0.1487,0.1486,0,0,0.1081,0.1086,0.1095,0.11,0.1124,0.1132,0.1144,0.1183,0.1194,0.1259,0.1286,0.1356,0.1431,0.1461,0.1489,0.156,0.1546,0.157,0.1597,0.1667,0.1677,0.1687,0.1629,0.1635,0.1568,0.1568,0.1568,0,0.1071,0.1094,0.1104,0.1111,0.1118,0.1136,0.1137,0.1161,0.1223,0.1246,0.1268,0.1415,0.1459,0.1522,0.1548,0.1566,0.1565,0.1557,0.1668,0.1679,0.1689,0.1629,0.1635,0.1567,0.1567,0.1567,0.1567,0,0.1113,0.1108,0.1116,0.1113,0.1122,0.1124,0.1149,0.1173,0.1217,0.1253,0.1342,0.1425,0.1506,0.1537,0.1571,0.1664,0.1618,0.1658,0.164,0.1699,0.1632,0.1638,0.1566,0.1566,0.1566,0.1567,0,0,0.1119,0.1126,0.1131,0.1102,0.1112,0.1115,0.1144,0.1162,0.1185,0.1276,0.1327,0.1456,0.1511,0.1554,0.1605,0.1693,0.1744,0.1716,0.172,0.1629,0.1807,0.1645,0.1635,0.1803,0.1807,0.1809,0.1694,0,0.1121,0.1117,0.1139,0.1116,0.1089,0.1102,0.1123,0.1152,0.1197,0.1251,0.1355,0.1434,0.1506,0.1558,0.1654,0.1745,0.1777,0.1766,0.1793,0.1791,0.1619,0.1646,0.1531,0.1412,0.1701,0.1702,0.1703,0,0.1142,0.113,0.111,0.1067,0.1062,0.1074,0.1081,0.1105,0.1173,0.122,0.1317,0.1389,0.1523,0.1591,0.1745,0.1733,0.1773,0.1834,0.1831,0.1714,0.1647,0.1425,0.1414,0.1714,0.1713,0.1712,0.1711,0,0.1113,0.1094,0.1067,0.1059,0.1042,0.1051,0.1059,0.1107,0.1127,0.1215,0.1262,0.1386,0.149,0.1596,0.1731,0.1742,0.1878,0.1886,0.1746,0.1728,0.1657,0.1628,0.1981,0.1981,0.1981,0.1982,0.1982,0,0.108,0.1057,0.1054,0.1039,0.1017,0.1027,0.1031,0.1063,0.112,0.1165,0.1258,0.1339,0.1526,0.1618,0.1699,0.1729,0.1835,0.1748,0.1718,0.1628,0.16,0.1916,0.1911,0.1977,0.1978,0.1979,0.198,0,0.1041,0.104,0.0999,0.0994,0.0996,0.0991,0.101,0.1022,0.1088,0.1157,0.1196,0.133,0.145,0.1552,0.1713,0.1677,0.1727,0.1703,0.1515,0.1466,0.1505,0.15,0.1483,0.1477,0.1472,0.1467,0.1464,0,0.1007,0.0985,0.0974,0.0975,0.098,0.0978,0.0983,0.1013,0.1039,0.1163,0.1203,0.1325,0.1389,0.1465,0.1472,0.1455,0.1618,0.1298,0.1317,0.1497,0.1469,0.1472,0.1473,0.1163,0.1157,0.1153,0.1149,0,0.0943,0.0958,0.0951,0.0964,0.0968,0.0946,0.0968,0.0976,0.1043,0.1116,0.1234,0.1284,0.1302,0.1248,0.1179,0.1173,0.1283,0.1191,0.1498,0.1301,0.1186,0.1162,0.1176,0.1107,0.1111,0.1114,0.1117,0.1118,0.0911,0.0921,0.0947,0.0958,0.0965,0.0965,0.0958,0.0985,0.1032,0.1118,0.1187,0.1198,0.1131,0.0964,0.0933,0.0889,0.0963,0.0922,0.0943,0.0966,0.0944,0.0828,0.0669,0.067,0.0672,0.0673,0.0674,0,0.0895,0.0945,0.0945,0.0972,0.0985,0.1004,0.0989,0.0963,0.1027,0.1039,0.1101,0.0934,0.0815,0.0794,0.063,0.0537,0.0602,0.054,0.0652,0.0689,0.0724,0.0698,0.0352,0.0352,0.0352,0.0352,0,0,0.0892,0.0925,0.0944,0.0988,0.1042,0.1038,0.1042,0.0988,0.0939,0.0903,0.0865,0.0828,0.0748,0.0573,0.0496,0.0422,0.058,0.0399,0.0647,0.0818,0.0854,0.091,0.0904,0,0,0,0,0]},{"header":{"parameterUnit":"m.s-1","parameterCategory":2,"la1":30.2991,"la2":30.254,"lo1":-89.0895,"lo2":-89.0444,"dy":0.0017,"dx":0.0017,"nx":28,"ny":28,"refTime":"2024-09-29T09:00:00:Z","depth":"2","parameterNumber":3,"parameterNumberName":"V-component_of_CURRENTS"},"data":[0,0,0,0,0,0,0,0,0,0,0,0,0,0,0,0,0,0,0,0,0,0,0,0,0,0,0,0,0,0,0,0,0,0,0,0,0,0,0,0,0,0,0,0,0,0,0,0,0,0,0,0,0,0,0,0,0,0,0.0049,0.0049,0,0.0008,0.0007,0.0006,-0.0023,-0.0023,-0.0023,-0.0023,-0.0111,-0.0113,-0.0115,0,0,0,0,0,0,0,0,0,0,0,0,0,0.0064,0.0064,0.0049,0.0049,0.0049,0.0008,0.0007,0.0006,-0.0023,-0.0023,-0.0023,-0.0023,-0.011,-0.0113,-0.0116,0,0,0,0,0,0,0,0,0,0,0,0,0,0.0041,0.0064,0.0049,0.0031,0.0029,0.0008,0.0007,0.0006,-0.0023,-0.0023,-0.0023,-0.0023,-0.0109,-0.0113,-0.0116,-0.0138,0,0,-0.0127,-0.0128,0,0,0,0,0,0,0,0,0.0043,0.004,0.0034,0.0033,0.003,0.0,-0.002,-0.0044,-0.0023,-0.0006,-0.0023,-0.0023,-0.0076,-0.0083,-0.0094,-0.0142,-0.0146,-0.0127,-0.0129,-0.0131,-0.0132,0,0,0,0,0,0,0,0.0044,0.0042,0.003,0.0034,0.0032,0.0012,0.0009,-0.0025,-0.0043,-0.0007,-0.0009,-0.0009,-0.0078,-0.009,-0.0096,-0.0147,-0.0127,-0.013,-0.0132,-0.0134,-0.0189,-0.0188,0,0,0,0,0,0,0.0057,0.0044,0.0032,0.0029,0.004,0.0012,0.0008,0.0008,-0.0042,-0.0049,-0.0009,-0.001,-0.0084,-0.0092,-0.0099,-0.0124,-0.0131,-0.0134,-0.0136,-0.019,-0.0189,-0.0188,0,0,0,0,0,0,0.0057,0.0056,0.0033,0.0037,0.0034,0.0012,0.0011,0.0007,-0.0005,-0.0043,-0.0051,-0.0016,-0.0084,-0.0094,-0.0119,-0.0128,-0.0136,-0.0139,-0.019,-0.0189,-0.0189,-0.0178,0,0,0,0,0,0,0.0058,0.0056,0.0056,0.0038,0.0034,0.0019,0.0012,0.0006,-0.0004,-0.0006,-0.0051,-0.0059,-0.0085,-0.0114,-0.0123,-0.0133,-0.0142,-0.0191,-0.019,-0.0189,-0.0179,-0.0177,-0.0175,0,0,0,0,0,0.0058,0.0057,0.0057,0.0055,0.0036,0.0019,0.0014,-0.0003,-0.0004,-0.0013,-0.0032,-0.0058,-0.0112,-0.0116,-0.0127,-0.0139,-0.0192,-0.019,-0.0189,-0.018,-0.0177,-0.0175,0,0,0,0,0,0,0.0055,0.0054,0.0053,0.0049,0.0036,0.0015,0.0006,-0.0001,-0.0024,-0.0026,-0.0057,-0.0067,-0.0088,-0.011,-0.0113,-0.0146,-0.0154,-0.0154,-0.0143,-0.0141,-0.0139,-0.0111,-0.0145,0,0,0,0,0,0.0059,0.0061,0.0051,0.0047,0.0042,0.0026,0.0017,0.0006,-0.0012,-0.0022,-0.0049,-0.0072,-0.009,-0.0112,-0.0131,-0.0161,-0.015,-0.017,-0.0167,-0.0166,-0.0147,-0.0101,-0.0092,-0.0183,-0.0183,-0.0183,0,0,0.0055,0.0056,0.0055,0.0047,0.0036,0.0021,0.0019,0.0005,-0.0009,-0.003,-0.0057,-0.0066,-0.0092,-0.0115,-0.0128,-0.0139,-0.0145,-0.0164,-0.0162,-0.0144,-0.0098,-0.0089,-0.0081,-0.0182,-0.0183,-0.0183,0,0,0.0044,0.0051,0.0046,0.0037,0.0027,0.0018,0.0017,-0.0002,-0.0012,-0.0035,-0.0043,-0.0041,-0.0096,-0.0098,-0.0111,-0.0105,-0.0126,-0.0127,-0.0109,-0.0064,-0.0056,-0.0048,-0.0069,-0.0063,-0.0135,-0.0135,-0.0135,0,0.0036,0.0035,0.0039,0.0029,0.0023,0.0018,0.0005,-0.0009,-0.0033,-0.0034,-0.0042,-0.0057,-0.0079,-0.0082,-0.008,-0.01,-0.0099,-0.0123,-0.006,-0.0052,-0.0045,-0.0067,-0.0061,-0.0135,-0.0135,-0.0135,-0.0135,0,0.0022,0.0018,0.0014,0.0006,-0.0003,-0.0013,-0.0024,-0.0032,-0.0037,-0.0043,-0.0039,-0.0044,-0.0049,-0.0059,-0.0075,-0.0041,-0.0069,-0.0056,-0.0067,-0.0035,-0.0061,-0.0055,-0.0134,-0.0134,-0.0134,-0.0134,0,0,0.0008,0.0005,0.0004,0.0001,-0.0012,-0.0019,-0.0034,-0.0041,-0.0034,-0.0045,-0.0025,-0.0038,-0.0022,-0.003,-0.0037,0.0,0.0035,-0.0011,-0.0009,-0.0032,0.0085,0.0094,0.0101,0.0059,0.0061,0.0063,0.0028,0,-0.0006,-0.0016,-0.0016,-0.0032,-0.0038,-0.004,-0.005,-0.0055,-0.005,-0.0032,-0.0014,0.0,-0.0021,-0.0008,0.0023,0.0054,0.006,0.004,0.0059,0.0059,0.0065,0.0114,0.0072,0.0043,0.0034,0.0035,0.0036,0,-0.0024,-0.0021,-0.0035,-0.0034,-0.0037,-0.005,-0.004,-0.0049,-0.0028,-0.0019,0.0008,0.0026,0.0069,0.0065,0.0112,0.0098,0.0087,0.0104,0.0103,0.0123,0.0084,0.002,0.0055,0.0047,0.0046,0.0045,0.0045,0,-0.0029,-0.0037,-0.004,-0.0044,-0.0047,-0.0053,-0.0056,-0.0047,-0.0031,0.0003,0.0045,0.0073,0.0132,0.0137,0.0165,0.0137,0.0234,0.0193,0.0174,0.017,0.0149,0.0142,0.0224,0.0224,0.0224,0.0225,0.0225,0,-0.0043,-0.0049,-0.0042,-0.0047,-0.0044,-0.0052,-0.0041,-0.0039,-0.0002,0.0051,0.0059,0.0143,0.0169,0.0224,0.0194,0.0222,0.0247,0.0195,0.0188,0.0145,0.0139,0.0164,0.0158,0.0223,0.0223,0.0224,0.0224,0,-0.0065,-0.0058,-0.0061,-0.0054,-0.0051,-0.0053,-0.0033,-0.0008,0.0018,0.0101,0.0125,0.022,0.03,0.0298,0.0343,0.0289,0.0292,0.0282,0.0203,0.019,0.0164,0.0158,0.0227,0.0228,0.0228,0.0229,0.0229,0,-0.0081,-0.0083,-0.0065,-0.0052,-0.0054,-0.0048,-0.0028,-0.0007,0.0041,0.0168,0.0233,0.0339,0.0435,0.0477,0.0416,0.0346,0.0345,0.0249,0.0202,0.0192,0.0177,0.017,0.0164,0.0137,0.0136,0.0136,0.0136,0,-0.0106,-0.0096,-0.0088,-0.0058,-0.0037,-0.0003,0.0034,0.0084,0.0152,0.0252,0.042,0.0507,0.0544,0.0513,0.0424,0.0366,0.0254,0.0239,0.0294,0.016,0.011,0.0094,0.009,0.0133,0.0133,0.0133,0.0133,0.0134,-0.0121,-0.011,-0.0084,-0.0056,-0.0022,0.0053,0.0119,0.02,0.0317,0.0478,0.054,0.0642,0.0564,0.0457,0.0388,0.0277,0.0265,0.0176,0.0175,0.0175,0.019,0.0146,0.0173,0.0173,0.0173,0.0174,0.0174,0,-0.0111,-0.0094,-0.0075,-0.0019,0.0036,0.0054,0.0179,0.0273,0.0457,0.0537,0.0668,0.0588,0.0538,0.0447,0.0262,0.017,0.015,0.0149,0.0113,0.0115,0.0117,0.0128,0.0095,0.0095,0.0095,0.0095,0,0,-0.0098,-0.0069,-0.0051,0.0033,0.0078,0.0201,0.0299,0.0434,0.0516,0.0632,0.0648,0.0663,0.0527,0.0382,0.0264,0.0172,0.0171,0.0163,0.0223,0.0194,0.0198,0.0118,0.0136,0,0,0,0,0]}],[{"header":{"parameterUnit":"m.s-1","parameterCategory":2,"la1":30.2991,"la2":30.254,"lo1":-89.0895,"lo2":-89.0444,"dy":0.0017,"dx":0.0017,"nx":28,"ny":28,"refTime":"2024-09-29T09:00:00:Z","depth":"4","parameterNumber":2,"parameterNumberName":"U-component_of_CURRENTS"},"data":[0,0,0,0,0,0,0,0,0,0,0,0,0,0,0,0,0,0,0,0,0,0,0,0,0,0,0,0,0,0,0,0,0,0,0,0,0,0,0,0,0,0,0,0,0,0,0,0,0,0,0,0,0,0,0,0,0,0,0.0058,0.0057,0,-0.0093,-0.0095,-0.0097,-0.0176,-0.0175,-0.0174,-0.0174,-0.0301,-0.0304,-0.0308,0,0,0,0,0,0,0,0,0,0,0,0,0,0.0146,0.0145,0.0058,0.0057,0.0056,-0.0092,-0.0095,-0.0098,-0.0176,-0.0175,-0.0174,-0.0173,-0.0299,-0.0304,-0.0309,0,0,0,0,0,0,0,0,0,0,0,0,0,0.0056,0.0145,0.0058,0.0005,-0.0001,-0.0092,-0.0095,-0.0099,-0.0176,-0.0175,-0.0174,-0.0173,-0.0298,-0.0303,-0.0309,-0.0366,0,0,-0.0328,-0.033,0,0,0,0,0,0,0,0,0.0061,0.0052,0.0014,0.0009,0.0002,-0.0107,-0.011,-0.0184,-0.0176,-0.0118,-0.0174,-0.0173,-0.0229,-0.0241,-0.0283,-0.0372,-0.0377,-0.0328,-0.0332,-0.0334,-0.0336,0,0,0,0,0,0,0,0.0068,0.0057,-0.001,0.0013,0.0006,-0.0056,-0.0067,-0.0126,-0.0183,-0.0123,-0.0127,-0.0131,-0.0233,-0.0277,-0.0286,-0.0379,-0.0328,-0.0333,-0.0337,-0.0339,-0.044,-0.0439,0,0,0,0,0,0,0.0108,0.0064,-0.0005,-0.0014,0.0044,-0.0057,-0.007,-0.008,-0.0183,-0.0196,-0.0132,-0.0134,-0.0268,-0.0279,-0.0291,-0.0304,-0.0334,-0.034,-0.0343,-0.0441,-0.044,-0.0439,0,0,0,0,0,0,0.0111,0.0103,0.0001,0.0028,0.0012,-0.0057,-0.0069,-0.0083,-0.0108,-0.0188,-0.0202,-0.0138,-0.0267,-0.0283,-0.0342,-0.0311,-0.0343,-0.0348,-0.0442,-0.0441,-0.0439,-0.0366,0,0,0,0,0,0,0.0114,0.0105,0.0109,0.0031,0.0013,-0.0051,-0.0069,-0.0086,-0.0109,-0.0114,-0.0199,-0.0211,-0.0268,-0.0333,-0.0348,-0.0319,-0.0353,-0.0443,-0.0441,-0.044,-0.037,-0.0363,-0.0357,0,0,0,0,0,0.0117,0.0104,0.011,0.0102,0.0021,-0.0051,-0.0068,-0.012,-0.011,-0.0136,-0.0187,-0.0208,-0.033,-0.0339,-0.0356,-0.0328,-0.0444,-0.0442,-0.044,-0.0373,-0.0364,-0.0357,0,0,0,0,0,0,0.0128,0.0094,0.0098,0.0073,0.0027,-0.006,-0.0088,-0.0104,-0.0168,-0.0167,-0.0226,-0.0244,-0.0278,-0.0315,-0.0322,-0.0348,-0.0379,-0.038,-0.0321,-0.0314,-0.0307,-0.0279,-0.0358,0,0,0,0,0,0.0143,0.0135,0.0087,0.0069,0.005,-0.0006,-0.0036,-0.007,-0.0131,-0.0157,-0.0204,-0.0248,-0.0288,-0.031,-0.0365,-0.0395,-0.0418,-0.0378,-0.0371,-0.0365,-0.0352,-0.0366,-0.036,-0.0432,-0.0432,-0.0432,0,0,0.0135,0.0126,0.0115,0.0074,0.0034,-0.0024,-0.0026,-0.0075,-0.0113,-0.016,-0.0218,-0.0238,-0.0293,-0.0329,-0.0343,-0.0353,-0.0357,-0.0362,-0.0357,-0.0347,-0.0363,-0.0356,-0.035,-0.0431,-0.0431,-0.0431,0,0,0.01,0.0117,0.0085,0.0054,0.0014,-0.0025,-0.0025,-0.0093,-0.011,-0.0165,-0.019,-0.0188,-0.0272,-0.029,-0.0311,-0.0297,-0.0327,-0.0296,-0.0238,-0.0252,-0.0246,-0.0241,-0.0264,-0.0262,-0.0285,-0.0285,-0.0285,0,0.0094,0.0055,0.006,0.0019,-0.0005,-0.0017,-0.0073,-0.0105,-0.0177,-0.0166,-0.0174,-0.0214,-0.0252,-0.0261,-0.0244,-0.028,-0.0296,-0.0266,-0.0242,-0.0238,-0.0234,-0.0259,-0.0258,-0.0281,-0.0281,-0.0282,-0.0282,0,0.0014,-0.0005,-0.0027,-0.007,-0.0094,-0.0143,-0.0168,-0.0172,-0.0163,-0.0176,-0.0161,-0.0196,-0.0197,-0.0197,-0.0221,-0.019,-0.0214,-0.0238,-0.0261,-0.0222,-0.0252,-0.0251,-0.0276,-0.0277,-0.0278,-0.0279,0,0,-0.0024,-0.0077,-0.0081,-0.0095,-0.014,-0.0167,-0.0188,-0.0204,-0.0175,-0.0192,-0.0156,-0.0174,-0.0121,-0.0138,-0.0137,-0.0134,-0.0115,-0.0156,-0.0158,-0.0176,-0.0148,-0.0153,-0.0154,-0.0133,-0.0132,-0.0131,-0.0181,0,-0.0091,-0.0174,-0.0179,-0.0238,-0.0278,-0.0256,-0.0262,-0.0253,-0.0226,-0.0191,-0.0152,-0.0128,-0.0123,-0.0082,-0.0077,-0.0103,-0.0109,-0.0099,-0.0185,-0.0188,-0.0195,-0.0152,-0.0129,-0.0181,-0.0181,-0.0181,-0.0181,0,-0.0165,-0.02,-0.0286,-0.0278,-0.0289,-0.031,-0.0259,-0.0264,-0.0197,-0.016,-0.0093,-0.0066,-0.0018,-0.003,-0.0043,-0.0033,-0.0074,-0.0107,-0.0111,-0.0138,-0.0192,-0.0228,-0.0181,-0.0181,-0.0181,-0.0181,-0.0181,0,-0.0187,-0.0253,-0.0311,-0.0328,-0.0345,-0.0323,-0.0298,-0.0237,-0.0201,-0.0108,-0.0064,-0.0013,0.0026,-0.0001,-0.0042,-0.003,-0.0096,-0.0101,-0.0156,-0.0159,-0.0174,-0.0179,-0.0132,-0.0132,-0.0132,-0.0131,-0.0131,0,-0.024,-0.0275,-0.0315,-0.0343,-0.0341,-0.0321,-0.0272,-0.0224,-0.0144,-0.0101,-0.0024,-0.0001,0.0038,0.0008,-0.0037,-0.0093,-0.0095,-0.0132,-0.0162,-0.0144,-0.0144,-0.0174,-0.0179,-0.0133,-0.0133,-0.0133,-0.0132,0,-0.0257,-0.0305,-0.0355,-0.037,-0.0357,-0.0337,-0.0256,-0.0209,-0.0129,-0.007,-0.0031,0.0024,0.0008,-0.0013,-0.0068,-0.0086,-0.0151,-0.0192,-0.0179,-0.0212,-0.02,-0.02,-0.0206,-0.0206,-0.0206,-0.0207,-0.0207,0,-0.0285,-0.0322,-0.0364,-0.0369,-0.0372,-0.0328,-0.0285,-0.0199,-0.0157,-0.0087,-0.0075,-0.0044,-0.0025,-0.0081,-0.0126,-0.0192,-0.0216,-0.0228,-0.0176,-0.0174,-0.0203,-0.0203,-0.0202,-0.0207,-0.0207,-0.0207,-0.0208,0,-0.0313,-0.0335,-0.0368,-0.0385,-0.0364,-0.0339,-0.0277,-0.0242,-0.0155,-0.0107,-0.0057,-0.0036,-0.0068,-0.0081,-0.0132,-0.0202,-0.0186,-0.0231,-0.0229,-0.0181,-0.0176,-0.0205,-0.0204,-0.0209,-0.0209,-0.0208,-0.0208,0,-0.032,-0.0341,-0.0381,-0.038,-0.0374,-0.0349,-0.031,-0.0245,-0.0183,-0.0089,-0.0105,-0.0092,-0.0068,-0.0098,-0.0182,-0.0198,-0.0184,-0.0158,-0.016,-0.0159,-0.0126,-0.0113,-0.0136,0,0,0,0,0,-0.0322,-0.0335,-0.0356,-0.0368,-0.0366,-0.0359,-0.0312,-0.0272,-0.0207,-0.015,-0.0098,-0.012,-0.0124,-0.015,-0.0161,-0.0233,-0.0238,-0.025,-0.0221,-0.0215,-0.0214,-0.0181,0,0,0,0,0,0,-0.0327,-0.035,-0.0361,-0.0358,-0.0357,-0.0346,-0.0321,-0.0282,-0.0235,-0.0167,-0.017,-0.0115,-0.0145,-0.0112,-0.0159,-0.017,-0.0149,-0.025,-0.025,-0.0216,-0.0214,-0.0213,-0.018,0,0,0,0,0]},{"header":{"parameterUnit":"m.s-1","parameterCategory":2,"la1":30.2991,"la2":30.254,"lo1":-89.0895,"lo2":-89.0444,"dy":0.0017,"dx":0.0017,"nx":28,"ny":28,"refTime":"2024-09-29T09:00:00:Z","depth":"4","parameterNumber":3,"parameterNumberName":"V-component_of_CURRENTS"},"data":[0,0,0,0,0,0,0,0,0,0,0,0,0,0,0,0,0,0,0,0,0,0,0,0,0,0,0,0,0,0,0,0,0,0,0,0,0,0,0,0,0,0,0,0,0,0,0,0,0,0,0,0,0,0,0,0,0,0,0.015,0.015,0,0.0216,0.0217,0.0218,0.0279,0.028,0.0281,0.0281,0.0442,0.0445,0.0449,0,0,0,0,0,0,0,0,0,0,0,0,0,0.011,0.011,0.015,0.015,0.0151,0.0216,0.0217,0.0218,0.0279,0.028,0.0281,0.0282,0.044,0.0445,0.0449,0,0,0,0,0,0,0,0,0,0,0,0,0,0.0148,0.011,0.0149,0.0188,0.0192,0.0216,0.0217,0.0219,0.0279,0.028,0.0281,0.0282,0.0439,0.0444,0.045,0.0465,0,0,0.0467,0.0469,0,0,0,0,0,0,0,0,0.0146,0.015,0.0182,0.0186,0.019,0.0239,0.0262,0.0305,0.0279,0.0247,0.0281,0.0282,0.0381,0.0391,0.0402,0.0472,0.0479,0.0467,0.047,0.0473,0.0474,0,0,0,0,0,0,0,0.0143,0.0147,0.0177,0.0183,0.0188,0.0214,0.0221,0.027,0.0311,0.025,0.0255,0.026,0.0384,0.0397,0.0407,0.0482,0.0467,0.0472,0.0475,0.0477,0.0569,0.0568,0,0,0,0,0,0,0.0129,0.0144,0.0175,0.0179,0.0169,0.0214,0.0221,0.0224,0.0309,0.0321,0.0259,0.0262,0.0387,0.04,0.0413,0.0458,0.0473,0.0478,0.0481,0.057,0.0569,0.0568,0,0,0,0,0,0,0.0128,0.0131,0.0172,0.0163,0.017,0.0213,0.0216,0.0224,0.0242,0.0314,0.0329,0.0268,0.0388,0.0405,0.0479,0.0464,0.048,0.0486,0.0571,0.057,0.0569,0.0533,0,0,0,0,0,0,0.0127,0.013,0.0129,0.0161,0.017,0.0197,0.0215,0.0225,0.0243,0.0248,0.0327,0.0342,0.039,0.0471,0.0485,0.0472,0.049,0.0572,0.0571,0.0569,0.0536,0.0531,0.0527,0,0,0,0,0,0.0125,0.013,0.0128,0.0132,0.0165,0.0197,0.0205,0.024,0.0242,0.0257,0.0316,0.034,0.0468,0.0476,0.0493,0.048,0.0573,0.0571,0.0569,0.0538,0.0532,0.0527,0,0,0,0,0,0,0.0116,0.0137,0.0136,0.0147,0.017,0.0208,0.0225,0.0234,0.0287,0.0295,0.0357,0.0377,0.0431,0.0457,0.0463,0.0496,0.0513,0.0514,0.0483,0.0478,0.0474,0.0475,0.0494,0,0,0,0,0,0.0108,0.0114,0.0138,0.0145,0.0157,0.0183,0.0198,0.0216,0.0263,0.0286,0.0346,0.0393,0.0431,0.0459,0.0509,0.054,0.0534,0.0531,0.0526,0.0523,0.0531,0.0487,0.0479,0.0562,0.0562,0.0562,0,0,0.0111,0.0116,0.0124,0.0142,0.0163,0.0193,0.0197,0.022,0.0249,0.0296,0.0369,0.0396,0.0439,0.0479,0.05,0.0503,0.0496,0.052,0.0517,0.0528,0.0484,0.0476,0.0469,0.056,0.0561,0.0561,0,0,0.0123,0.0119,0.0136,0.0154,0.0175,0.0195,0.0198,0.024,0.0266,0.0325,0.0352,0.0374,0.0456,0.047,0.0486,0.0483,0.0482,0.048,0.0459,0.0415,0.0408,0.0401,0.0384,0.0376,0.0469,0.0469,0.0469,0,0.0122,0.0141,0.0147,0.0169,0.019,0.0195,0.0227,0.0251,0.0314,0.0331,0.0351,0.0414,0.045,0.0461,0.0457,0.0475,0.0455,0.0478,0.0409,0.0402,0.0397,0.038,0.0372,0.0467,0.0467,0.0467,0.0467,0,0.0155,0.0169,0.0182,0.021,0.0234,0.0257,0.0288,0.0314,0.0336,0.0354,0.0383,0.0417,0.0445,0.0436,0.0457,0.0418,0.042,0.0414,0.0422,0.0386,0.0371,0.0364,0.0464,0.0465,0.0465,0.0466,0,0,0.0157,0.0198,0.0202,0.0223,0.0255,0.028,0.0319,0.0352,0.0362,0.0397,0.0407,0.0439,0.0423,0.0437,0.043,0.0386,0.0327,0.0377,0.0376,0.0362,0.0238,0.0247,0.024,0.0296,0.0295,0.0294,0.0245,0,0.018,0.0221,0.0244,0.0295,0.032,0.034,0.0374,0.0397,0.0413,0.0426,0.041,0.043,0.0429,0.0424,0.0377,0.0343,0.0304,0.0342,0.0275,0.0274,0.0287,0.0231,0.0289,0.0239,0.0238,0.0236,0.0235,0,0.0206,0.0228,0.0281,0.0324,0.0341,0.0381,0.0416,0.0446,0.0446,0.0453,0.0438,0.0427,0.0385,0.038,0.0297,0.0315,0.028,0.0247,0.0244,0.0263,0.0269,0.0282,0.0222,0.0223,0.0224,0.0225,0.0226,0,0.0196,0.0254,0.0295,0.0314,0.0368,0.0406,0.0439,0.0457,0.0476,0.0465,0.0452,0.0409,0.0383,0.032,0.0265,0.0269,0.0163,0.0164,0.0145,0.0147,0.0171,0.0179,0.0103,0.0103,0.0103,0.0103,0.0103,0,0.0203,0.0236,0.0301,0.0324,0.0379,0.0417,0.0465,0.0482,0.049,0.0479,0.0463,0.0413,0.036,0.0296,0.0247,0.0172,0.0152,0.0137,0.0125,0.0159,0.0165,0.0166,0.0174,0.0101,0.0102,0.0102,0.0102,0,0.0186,0.0226,0.0272,0.0343,0.0378,0.0418,0.0499,0.0516,0.052,0.0497,0.0491,0.0417,0.0321,0.0279,0.0174,0.0157,0.0086,0.0071,0.0125,0.0118,0.0106,0.0113,0.0038,0.0037,0.0037,0.0037,0.0037,0,0.0183,0.0206,0.0283,0.0323,0.037,0.0442,0.0486,0.0532,0.0531,0.0473,0.0436,0.0359,0.0302,0.017,0.0119,0.0055,0.0053,0.0046,0.0065,0.0099,0.0095,0.0102,0.0109,0.0036,0.0036,0.0036,0.0036,0,0.0171,0.0196,0.0228,0.0306,0.0376,0.0443,0.0498,0.048,0.0487,0.0503,0.0385,0.0322,0.0218,0.0134,0.0111,0.0052,0.0062,0.0043,0.0044,0.0061,0.0097,0.0094,0.0101,0.0035,0.0035,0.0035,0.0035,0,0.0154,0.0171,0.0217,0.0287,0.0369,0.041,0.0438,0.0435,0.0444,0.038,0.0325,0.0231,0.0196,0.0127,0.0072,0.0054,0.0047,0.0061,0.006,0.0061,0.0089,0.0139,0.0069,0,0,0,0,0,0.0145,0.0166,0.0208,0.0267,0.0337,0.0405,0.0434,0.0441,0.0422,0.0352,0.035,0.0252,0.0166,0.0102,0.0082,0.0056,0.0037,0.0032,0.0052,0.003,0.0031,0.0063,0,0,0,0,0,0,0.0143,0.017,0.019,0.0246,0.0293,0.0372,0.0396,0.0376,0.0331,0.0303,0.0248,0.0275,0.0179,0.019,0.009,0.008,0.0095,0.0008,0.0008,0.003,0.0031,0.0032,0.0064,0,0,0,0,0]}]]